Regional Weather Roundup
Issued by NWS

Home | Current Version | Previous Version | Text Only | Print | Product List | Glossary On
Versions: 1 2 3 4 5 6 7 8 9 10 11 12 13 14 15 16 17 18 19 20 21 22 23 24 25 26 27 28 29 30 31 32 33 34 35 36 37 38 39 40 41 42 43 44 45 46 47 48 49 50
285
ASUS43 KTOP 011659
RWRKS

WEATHER ROUNDUP FOR KANSAS
NATIONAL WEATHER SERVICE GOODLAND KS
1200 PM CDT SUN MAY 01 2016

NOTE:  "FAIR" INDICATES FEW OR NO CLOUDS BELOW 12,000 FEET WITH NO
SIGNIFICANT WEATHER AND/OR OBSTRUCTIONS TO VISIBILITY.

KSZ001>006-013>018-027>032-041>047-011800-
NORTHWEST KANSAS

CITY           SKY/WX    TMP DP  RH WIND       PRES   REMARKS
GOODLAND       CLOUDY    42  37  82 N17G30    30.24R
HAYS           CLOUDY    46  34  61 N15       30.18R
HILL CITY      CLOUDY    47  38  71 N17       30.20R
RUSSELL        CLOUDY    48  41  76 N20G28    30.14R
$$

KSZ061>065-074>080-084>089-011800-
SOUTHWEST KANSAS

CITY           SKY/WX    TMP DP  RH WIND       PRES   REMARKS
DODGE CITY     CLOUDY    44  35  70 N23G29    30.17R
ELKHART          N/A     42  31  65 N18         N/A
GARDEN CITY    CLOUDY    43  35  73 N29G38    30.16F
GREAT BEND     CLOUDY    46  36  66 N16G25    30.15R
LIBERAL        CLOUDY    46  34  61 N21G29    30.20R
$$

KSZ066>073-081>083-090>101-011800-
SOUTHEAST KANSAS

CITY           SKY/WX    TMP DP  RH WIND       PRES   REMARKS
CHANUTE        MOSUNNY   59  44  57 W13       30.05R
COFFEYVILLE    PTSUNNY   59  44  57 W14       30.07R
HUTCHINSON     CLOUDY    52  43  71 NW21      30.11R
MEDICINE LODGE   N/A     51  40  65 N16G25    30.13S
NEWTON         CLOUDY    52  41  66 NW21G26   30.10R
PARSONS        MOSUNNY   59  45  59 NW12G18   30.07R
WICHITA INTL   CLOUDY    54  44  69 N13       30.09S
WICHITA JABRA  CLOUDY    52  44  74 NW15      30.08S
WINFIELD       PTSUNNY   55  44  66 NW18G26   30.10S
$$

KSZ007>012-019>026-033>040-048>060-102>105-011800-
NORTHEAST KANSAS

CITY           SKY/WX    TMP DP  RH WIND       PRES   REMARKS
CONCORDIA      CLOUDY    47  40  76 N16G23    30.11R
EMPORIA        CLOUDY    54  45  71 W18G25    30.06R
LAWRENCE       CLOUDY    57  47  69 NW12      30.01R
MANHATTAN      CLOUDY    54  46  74 N7        30.05R
OLATHE IND     CLOUDY    56  45  66 NW9       30.01R
OLATHE EXE     CLOUDY    56  42  59 W9        30.00R
SALINA         CLOUDY    52  43  71 NW22      30.10R
TOPEKA BILLARD PTSUNNY   59  47  64 W8        30.02S
TOPEKA FORBES  SUNNY     60  46  59 NW10      30.02R
$$




USA.gov is the U.S. government's official web portal to all federal, state and local government web resources and services.